Home > Time Zones > World Clock > Weather > Aktau > Past weeks

Flag for Kazakhstan Weather past 2 weeks in Aktau, Kazakhstan

Now
55 °F

Clear.


Feels Like: 53 °F
Forecast: 56 / 70 °F
Wind: 10 mph from East

Location: Aktau

Current Time: Apr 28, 2015 at 8:03:44 AM

Latest Report: Apr 28, 2015 at 7:30 AM


Visibility: 10 mi

Pressure: 30.07 "Hg

Humidity: 63%

Dew point: 43 °F

Location of AktauLocation

Historic Weather in Aktau — Graph

°F

Aktau temperature yesterday

Maximum temperature yesterday: 72 °F (at 1:30 PM)
Minimum temperature yesterday: 41 °F (at 6:30 AM)
Average temperature yesterday: 57 °F

Past Weeks' High & Low Weather Summary

 TemperatureHumidityPressure
High72 °F (Apr 27, 1:30 PM)100% (Apr 26, 3:00 PM)30.24 "Hg (Apr 26, 3:00 PM)
Low34 °F (Apr 17, 4:30 AM)17% (Apr 27, 4:00 PM)29.56 "Hg (Apr 20, 4:00 AM)
Average50 °F70%29.97 "Hg
* Reported Apr 13 7:00 AM — Apr 28 7:00 AM, Aktau, Weather by CustomWeather, © 2015

Note: Actual official high and low records may vary slightly from our data, if they occured in-between our weather recording intervals... More about our weather records

Advertising

Aktau weather history for previous 24 hours

 ConditionsComfort  
Time TempWeatherWind HumidityBarometerVisibility
7:00 AM
Tue, Apr 28
54 °FClear.10 mph67%30.07 "Hg10 mi
6:30 AM54 °FClear.13 mph63%30.07 "Hg10 mi
6:00 AM52 °FClear.13 mph67%30.07 "Hg10 mi
5:30 AM52 °FClear.13 mph67%30.07 "Hg10 mi
5:00 AM52 °FClear.13 mph67%30.09 "Hg10 mi
4:30 AM52 °FClear.13 mph67%30.09 "Hg10 mi
4:00 AM54 °FClear.10 mph63%30.09 "Hg10 mi
3:30 AM52 °FClear.13 mph67%30.09 "Hg10 mi
3:00 AM54 °FClear.13 mph67%30.09 "Hg10 mi
2:30 AM54 °FClear.10 mph67%30.09 "Hg10 mi
2:00 AM54 °FPassing clouds.13 mph67%30.09 "HgN/A
1:30 AM54 °FPassing clouds.13 mph63%30.12 "HgN/A
1:00 AM54 °FPassing clouds.13 mph63%30.12 "HgN/A
12:30 AM54 °FPassing clouds.13 mph58%30.12 "HgN/A
12:00 AM54 °FPassing clouds.13 mph58%30.12 "HgN/A
11:30 PM
Mon, Apr 27
54 °FClear.10 mph58%30.12 "Hg10 mi
11:00 PM55 °FPassing clouds.10 mph51%30.12 "HgN/A
10:30 PM55 °FScattered clouds.10 mph51%30.12 "HgN/A
10:00 PM55 °FScattered clouds.6 mph55%30.12 "HgN/A
9:30 PM57 °FSunny.1 mph48%30.12 "Hg10 mi
9:00 PM61 °FSunny.3 mph36%30.12 "Hg10 mi
8:30 PM63 °FSunny.6 mph34%30.12 "Hg10 mi
8:00 PM66 °FSunny.8 mph28%30.12 "Hg10 mi
7:30 PM68 °FSunny.10 mph24%30.12 "Hg10 mi
7:00 PM68 °FSunny.13 mph28%30.12 "Hg10 mi
6:30 PM70 °FSunny.15 mph25%30.12 "Hg10 mi
6:00 PM70 °FSunny.15 mph23%30.15 "Hg10 mi
5:30 PM72 °FSunny.15 mph20%30.15 "Hg10 mi
5:00 PM72 °FSunny.15 mph20%30.15 "Hg10 mi
4:30 PM72 °FSunny.17 mph17%30.15 "Hg10 mi
4:00 PM72 °FSunny.17 mph17%30.15 "Hg10 mi
3:30 PM72 °FSunny.17 mph19%30.15 "Hg10 mi
3:00 PM70 °FSunny.17 mph23%30.18 "Hg10 mi
2:30 PM70 °FSunny.17 mph25%30.18 "Hg10 mi
2:00 PM72 °FPassing clouds.15 mph25%30.18 "HgN/A
1:30 PM72 °FSunny.15 mph22%30.18 "Hg10 mi
1:00 PM70 °FPassing clouds.15 mph20%30.18 "HgN/A
12:30 PM68 °FSunny.15 mph24%30.21 "Hg10 mi
12:00 PM66 °FSunny.13 mph26%30.21 "Hg10 mi
11:30 AM63 °FSunny.13 mph37%30.21 "Hg10 mi
11:00 AM63 °FSunny.15 mph39%30.21 "Hg10 mi
10:30 AM61 °FSunny.15 mph45%30.21 "Hg10 mi
10:00 AM57 °FSunny.15 mph59%30.21 "Hg10 mi
9:30 AM55 °FSunny.15 mph59%30.21 "Hg10 mi
9:00 AM54 °FSunny.15 mph63%30.21 "Hg10 mi
8:30 AM50 °FClear.13 mph76%30.21 "Hg10 mi
8:00 AM46 °FClear.10 mph82%30.21 "Hg10 mi
Weather by CustomWeather, © 2015

See weather overviewHow to use our weather pages